Regional Weather Roundup
Issued by NWS New Orleans/Baton Rouge, LA

Current Version | Previous Version | Text Only | Print | Product List | Glossary On
Versions: 1 2 3 4 5 6 7 8 9 10 11 12 13 14 15 16 17 18 19 20 21 22 23 24 25 26 27
000
ASUS44 KLIX 281014
RWRLIX
NEW ORLEANS REGIONAL WEATHER ROUNDUP
NATIONAL WEATHER SERVICE NEW ORLEANS LA
500 AM CDT SUN MAY 28 2017

NOTE: "FAIR" INDICATES FEW OR NO CLOUDS BELOW 12,000 FEET WITH NO
      SIGNIFICANT WEATHER AND/OR OBSTRUCTIONS TO VISIBILITY.
      SKY/WX - SKY CONDITION AND SIGNIFICANT WEATHER.
      TMP - AIR TEMPERATURE.     DP    - DEWPOINT TEMPERATURE.
      RH  - RELATIVE HUMIDITY.   PRES  - PRESSURE.
      HI  - HEAT INDEX.          WCI   - WIND CHILL INDEX.

*  THESE STATIONS ARE NOT NWS OR FAA STATIONS AND ARE NOT UNDER
   NWS QUALITY CONTROL.

LAZ038-040-048-061>063-065>067-069-281100-
SOUTHEAST LOUISIANA

CITY           SKY/WX    TMP DP  RH WIND       PRES   REMARKS
N.O. INTL ARPT CLOUDY    77  75  93 SW6       29.92S
N.O. LAKEFRONT CLOUDY    79  76  90 S9        29.93S
N.O. DOWNTOWN*   N/A     81  75  82 S9          N/A
RESERVE*       CLOUDY    80  75  85 SW9       29.93R
SLIDELL        CLOUDY    79  75  87 SW3       29.93R
BATON ROUGE    CLOUDY    79  74  84 S9        29.91R
BOOTHVILLE     CLOUDY   N/A N/A N/A S10       29.93F
BELLE CHASSE   PTCLDY   N/A N/A N/A SW10      29.92S
BOGALUSA*      CLOUDY    78  73  84 CALM      29.96R
GALLIANO*      CLOUDY    79  74  83 S10       29.92S
NEW ROADS*     CLOUDY    77  75  95 CALM      29.92R
GONZALES*      CLOUDY    78  74  87 CALM      29.92R
HAMMOND*       CLOUDY    77  72  83 S3        29.93R
HOUMA*         NOT AVBL
PORT FOURCHON* PTSUNNY   79  77  94 S12G17    29.92R FOG

$$

MSZ070-080>082-281100-
SOUTHERN MISSISSIPPI

CITY           SKY/WX    TMP DP  RH WIND       PRES   REMARKS
MCCOMB         CLOUDY    77  73  87 SW3       29.95R
GULFPORT       CLOUDY    80  76  87 SW6       29.93R
BILOXI         MOCLDY    79  75  89 SW9       29.93R
PASCAGOULA     CLOUDY    78  74  87 SW6       29.95R

$$

COASTAL OBSERVATIONS
LAKE AND NEARSHORE STATIONS

STATION/POSITION TIME  TEMP    WIND        PRES    WAVE
                       AIR SEA DIR/SP/G            HT/PER
                 (UTC) (F)     (DEG/KT/KT) (MB)    (FT/S)
PASCAGOULA       0948   79     240/  9/ 15 1013.6
WAVELAND YACHT   0942   79 80  230/  4/  7 1013.3
GRAND ISLE       0948   79 80  200/  7/ 12 1013.2
SOUTHWEST PASS   0948          180/ 12/ 14   N/A
NEW CANAL        0948   79 80  220/  6/  8 1013.0
SHELL BEACH      0942   79 81  200/ 12/ 14 1013.2

OFFSHORE STATIONS

STATION/POSITION TIME  TEMP    WIND        PRES    WAVE
                       AIR SEA DIR/SP/G            HT/PER
                 (UTC) (F)     (DEG/KT/KT) (MB)    (FT/S)
64 S DAUPHIN ISL 0950   78 79  180/ 16/ 17 1014.3    3/ 4

$$





USA.gov is the U.S. government's official web portal to all federal, state and local government web resources and services.